CZ-6A DEB, 54881

Orbit data source: Space-Track

CZ-6A DEB, 54881 is space debris in SSO originally from a launch on Fri, 11 Nov 2022 UTC launched from the Taiyaun Space Center, China (TSC). Debris objects in space refer to the collection of defunct objects orbiting the Earth. Examples of debris include non-operational satellites, rocket bodies, and fragments generated from explosions, collisions, or faulty payload assembly.

Loading next visibility...
Identifier
54881, 2022-151PS
Orbit
SSO
Country
Flag of CNCN / PRC
Related business
Manufacturer
SAST
Mission
Spacecraft
Bus & Motor
Unknown
Mass
Unknown
Launch date (UTC)
2022-11-11 (3 years ago)
Launch vehicle
Unknown
Launch site
Taiyaun Space Center, China (TSC)
Object type
Payload
Rocket body
Debris
Shape & HBR
Unknown shape, 0.1 m
Radar Cross Section
Small (<0.1 m²)

Expand to show TLE details & history
Last TLE update: 14 hours ago

TLE from 14 hours ago
0 CZ-6A DEB
1 54881U 22151PS  26130.00743242  .00005894  00000-0  96944-3 0  9992
2 54881  98.4048 160.2520 0090442  11.6883 348.6392 14.68271586183255
Epoch: 2026-05-10T00:10Z
TLE epoch observation values (Epoch: 2026-05-10T00:10:42.161Z)
Latitude
0.00002°
Longitude
-70.24037°
Altitude
607.126 km
Speed
7.589 km/s
True Right ascension
10h 41m 00s
True Declination
0° 00' 00"
Sunlit
Object was in daylight at epoch
Visualization orbit readout
Latitude
Unknown
Longitude
Unknown
Altitude
Unknown
Speed
Unknown
Apparent Right ascension
Unknown
Apparent Declination
Unknown
Sunlit
N/A
Visualization observer readout
Local Sidereal Time
22:08:33
Azimuth
Unknown
Elevation
Unknown
Doppler factor
Unknown
Orbital elements
Apogee altitude
727.358 km
Perigee altitude
599.983 km
Semi-major axis
7,041.808 km
Eccentricity
0.00904
Inclination
98.4048°
RAAN
160.252°
Arg. of periapsis
11.6883°
True anomaly
348.43276°
Mean anomaly
348.6392°
Eccentric anomaly
348.53621°
Mean motion
3.67297 °/min
Orbital period
98.01 mins
BSTAR
0.00096944
Loading maneuver chart data...
Computing Atmospheric mass density...
Loading historical data...
Loading historical data...
Loading historical data...
Loading historical data...
Loading historical data...
Loading historical data...
Loading historical data...

Documentation

Showing up to 5 results
|